| time (UTC) | temp C | wind direction | speed KPH | gust KPH | rain 1hr cm | rain 24hr cm | rain mn cm | humidity % | barometer mb |
| 20260510100522 | 21 | 348 | 0.0 | 0.0 | 0.00 | 0.00 | 0.00 | 99 | 1013.8 |
| 20260510100019 | 21 | 348 | 0.0 | 0.0 | 0.00 | 0.00 | 0.00 | 99 | 1013.5 |
| 20260510095515 | 21 | 348 | 0.0 | 0.0 | 0.00 | 0.00 | 0.00 | 99 | 1013.8 |
| 20260510095014 | 21 | 348 | 0.0 | 0.0 | 0.00 | 0.00 | 0.00 | 99 | 1013.7 |
| 20260510094508 | 21 | 348 | 0.0 | 0.0 | 0.00 | 0.00 | 0.00 | 99 | 1013.4 |
| 20260510094004 | 21 | 348 | 0.0 | 0.0 | 0.00 | 0.00 | 0.00 | 99 | 1013.3 |
| 20260510093500 | 21 | 349 | 0.0 | 0.0 | 0.00 | 0.00 | 0.00 | 99 | 1013.4 |
| 20260510092957 | 21 | 348 | 0.0 | 0.0 | 0.00 | 0.00 | 0.00 | 99 | 1013.0 |
| 20260510092454 | 21 | 348 | 0.0 | 0.0 | 0.00 | 0.00 | 0.00 | 99 | 1013.1 |
| 20260510091949 | 21 | 348 | 0.0 | 0.0 | 0.00 | 0.00 | 0.00 | 99 | 1013.1 |
| 20260510091446 | 21 | 348 | 0.0 | 0.0 | 0.00 | 0.00 | 0.00 | 99 | 1012.7 |
| 20260510090942 | 21 | 348 | 0.0 | 0.0 | 0.00 | 0.00 | 0.00 | 99 | 1012.8 |
| 20260510090439 | 21 | 348 | 0.0 | 0.0 | 0.00 | 0.00 | 0.00 | 99 | 1012.9 |
| 20260510085934 | 21 | 348 | 0.0 | 0.0 | 0.00 | 0.00 | 0.00 | 99 | 1012.9 |
| 20260510085429 | 21 | 348 | 0.0 | 0.0 | 0.00 | 0.00 | 0.00 | 99 | 1012.8 |
| 20260510084925 | 21 | 348 | 0.0 | 0.0 | 0.00 | 0.00 | 0.00 | 99 | 1013.0 |
| 20260510084422 | 21 | 348 | 0.0 | 0.0 | 0.00 | 0.00 | 0.00 | 99 | 1012.8 |
| 20260510083919 | 21 | 348 | 0.0 | 0.0 | 0.00 | 0.00 | 0.00 | 99 | 1012.7 |
| 20260510083415 | 21 | 348 | 0.0 | 0.0 | 0.00 | 0.00 | 0.00 | 99 | 1012.8 |
| 20260510082910 | 21 | 348 | 0.0 | 0.0 | 0.00 | 0.00 | 0.00 | 99 | 1012.6 |
| 20260510082409 | 21 | 349 | 0.0 | 0.0 | 0.00 | 0.00 | 0.00 | 99 | 1012.7 |
| 20260510081907 | 21 | 350 | 0.0 | 0.0 | 0.00 | 0.00 | 0.00 | 99 | 1012.9 |
| 20260510081403 | 21 | 291 | 0.0 | 0.0 | 0.00 | 0.00 | 0.00 | 99 | 1012.8 |
| 20260510080901 | 21 | 291 | 0.0 | 0.0 | 0.00 | 0.00 | 0.00 | 99 | 1012.8 |
| 20260510080354 | 21 | 268 | 0.0 | 0.0 | 0.00 | 0.00 | 0.00 | 99 | 1012.9 |
| 20260510075852 | 21 | 268 | 0.0 | 0.0 | 0.00 | 0.00 | 0.00 | 99 | 1012.8 |
| 20260510075349 | 21 | 268 | 0.0 | 0.0 | 0.00 | 0.00 | 0.00 | 99 | 1012.6 |
| 20260510074846 | 21 | 268 | 0.0 | 0.0 | 0.00 | 0.00 | 0.00 | 99 | 1012.7 |
| 20260510074343 | 20 | 267 | 0.0 | 0.0 | 0.00 | 0.00 | 0.00 | 99 | 1012.5 |
| 20260510073839 | 20 | 267 | 0.0 | 0.0 | 0.00 | 0.00 | 0.00 | 99 | 1012.4 |
| 20260510073335 | 20 | 267 | 0.0 | 0.0 | 0.00 | 0.00 | 0.00 | 99 | 1012.5 |
| 20260510072831 | 21 | 267 | 0.0 | 0.0 | 0.00 | 0.00 | 0.00 | 99 | 1012.5 |
| 20260510072328 | 20 | 267 | 0.0 | 0.0 | 0.00 | 0.00 | 0.00 | 99 | 1012.7 |
| 20260510071824 | 20 | 267 | 0.0 | 0.0 | 0.00 | 0.00 | 0.00 | 99 | 1012.5 |
| 20260510071321 | 21 | 267 | 0.0 | 0.0 | 0.00 | 0.00 | 0.00 | 99 | 1012.5 |
| 20260510070820 | 20 | 267 | 0.0 | 0.0 | 0.00 | 0.00 | 0.00 | 99 | 1012.5 |
| 20260510070311 | 21 | 267 | 0.0 | 0.0 | 0.00 | 0.00 | 0.00 | 99 | 1012.4 |
| 20260510065810 | 20 | 267 | 0.0 | 0.0 | 0.00 | 0.00 | 0.00 | 99 | 1012.6 |
| 20260510065307 | 21 | 267 | 0.0 | 0.0 | 0.00 | 0.00 | 0.00 | 99 | 1012.8 |
| 20260510064804 | 20 | 267 | 0.0 | 0.0 | 0.00 | 0.00 | 0.00 | 99 | 1012.6 |
| 20260510064256 | 21 | 267 | 0.0 | 0.0 | 0.00 | 0.00 | 0.00 | 99 | 1012.6 |
| 20260510063752 | 21 | 267 | 0.0 | 0.0 | 0.00 | 0.00 | 0.00 | 99 | 1012.5 |
| 20260510063248 | 21 | 267 | 0.0 | 0.0 | 0.00 | 0.00 | 0.00 | 99 | 1012.8 |
| 20260510062745 | 21 | 268 | 0.0 | 0.0 | 0.00 | 0.00 | 0.00 | 99 | 1012.8 |
| 20260510062240 | 21 | 267 | 0.0 | 0.0 | 0.00 | 0.00 | 0.00 | 99 | 1013.0 |
| 20260510061736 | 20 | 271 | 0.0 | 0.0 | 0.00 | 0.00 | 0.00 | 99 | 1013.0 |
| 20260510061233 | 21 | 271 | 0.0 | 0.0 | 0.00 | 0.00 | 0.00 | 99 | 1012.9 |
| 20260510060729 | 21 | 271 | 0.0 | 0.0 | 0.00 | 0.00 | 0.00 | 99 | 1013.1 |
| 20260510060226 | 21 | 271 | 0.0 | 0.0 | 0.00 | 0.00 | 0.00 | 99 | 1013.3 |
| 20260510055723 | 21 | 271 | 0.0 | 0.0 | 0.00 | 0.00 | 0.00 | 99 | 1013.2 |
| 20260510055221 | 21 | 271 | 0.0 | 0.0 | 0.00 | 0.00 | 0.00 | 99 | 1013.4 |
| 20260510054716 | 21 | 270 | 0.0 | 0.0 | 0.00 | 0.00 | 0.00 | 99 | 1013.3 |
| 20260510054212 | 21 | 270 | 0.0 | 0.0 | 0.00 | 0.00 | 0.00 | 99 | 1013.4 |
| 20260510053712 | 21 | 270 | 0.0 | 0.0 | 0.00 | 0.00 | 0.00 | 99 | 1013.5 |
| 20260510053209 | 21 | 273 | 0.0 | 0.0 | 0.00 | 0.00 | 0.00 | 99 | 1013.3 |
| 20260510052704 | 21 | 273 | 0.0 | 0.0 | 0.00 | 0.00 | 0.00 | 99 | 1013.6 |
| 20260510052200 | 21 | 273 | 0.0 | 0.0 | 0.00 | 0.00 | 0.00 | 99 | 1013.8 |
| 20260510051656 | 21 | 273 | 0.0 | 0.0 | 0.00 | 0.00 | 0.00 | 99 | 1013.9 |
| 20260510051153 | 21 | 272 | 0.0 | 0.0 | 0.00 | 0.00 | 0.00 | 99 | 1013.9 |
| 20260510050650 | 21 | 272 | 0.0 | 0.0 | 0.00 | 0.00 | 0.00 | 99 | 1013.9 |
| 20260510050148 | 21 | 270 | 0.0 | 0.0 | 0.00 | 0.00 | 0.00 | 99 | 1014.0 |
| 20260510045644 | 21 | 274 | 0.0 | 0.0 | 0.00 | 0.00 | 0.00 | 99 | 1014.3 |
| 20260510045141 | 21 | 280 | 0.0 | 0.0 | 0.00 | 0.00 | 0.00 | 99 | 1014.0 |
| 20260510044637 | 21 | 264 | 0.0 | 1.6 | 0.00 | 0.00 | 0.00 | 99 | 1014.1 |
| 20260510044135 | 21 | 282 | 0.0 | 0.0 | 0.00 | 0.00 | 0.00 | 99 | 1013.9 |
| 20260510043630 | 21 | 282 | 0.0 | 0.0 | 0.00 | 0.00 | 0.00 | 99 | 1014.1 |
| 20260510043127 | 21 | 282 | 0.0 | 0.0 | 0.00 | 0.00 | 0.00 | 99 | 1014.0 |
| 20260510042625 | 21 | 283 | 0.0 | 0.0 | 0.00 | 0.00 | 0.00 | 99 | 1014.1 |
| 20260510042120 | 21 | 287 | 0.0 | 0.0 | 0.00 | 0.00 | 0.00 | 99 | 1014.2 |
| 20260510041618 | 21 | 287 | 0.0 | 0.0 | 0.00 | 0.00 | 0.00 | 99 | 1014.2 |
| 20260510041114 | 21 | 287 | 0.0 | 0.0 | 0.00 | 0.00 | 0.00 | 99 | 1014.1 |
| 20260510040611 | 21 | 287 | 0.0 | 0.0 | 0.00 | 0.00 | 0.00 | 99 | 1014.0 |
| 20260510040107 | 21 | 287 | 0.0 | 0.0 | 0.00 | 0.00 | 0.00 | 99 | 1014.0 |
| 20260510035603 | 21 | 287 | 0.0 | 0.0 | 0.00 | 0.64 | 0.64 | 99 | 1014.0 |
| 20260510035058 | 21 | 287 | 0.0 | 0.0 | 0.00 | 0.64 | 0.64 | 99 | 1014.4 |
| 20260510034556 | 21 | 287 | 0.0 | 0.0 | 0.00 | 0.64 | 0.64 | 99 | 1014.1 |
| 20260510034053 | 21 | 267 | 0.0 | 0.0 | 0.00 | 0.64 | 0.64 | 99 | 1014.5 |
| 20260510033549 | 21 | 252 | 0.0 | 0.0 | 0.00 | 0.64 | 0.64 | 99 | 1014.4 |
| 20260510033047 | 21 | 252 | 0.0 | 0.0 | 0.00 | 0.64 | 0.64 | 99 | 1014.5 |
| 20260510032543 | 21 | 252 | 0.0 | 0.0 | 0.00 | 0.64 | 0.64 | 99 | 1014.3 |
| 20260510032038 | 21 | 252 | 0.0 | 0.0 | 0.00 | 0.64 | 0.64 | 99 | 1014.3 |
| 20260510031533 | 21 | 252 | 0.0 | 0.0 | 0.00 | 0.64 | 0.64 | 99 | 1014.4 |
| 20260510031029 | 21 | 252 | 0.0 | 0.0 | 0.00 | 0.64 | 0.64 | 99 | 1014.2 |
| 20260510030526 | 21 | 252 | 0.0 | 0.0 | 0.00 | 0.64 | 0.64 | 99 | 1014.0 |
| 20260510030023 | 21 | 252 | 0.0 | 0.0 | 0.00 | 0.64 | 0.64 | 99 | 1014.1 |
| 20260510025520 | 21 | 252 | 0.0 | 0.0 | 0.00 | 0.64 | 0.64 | 99 | 1014.1 |
| 20260510025018 | 21 | 252 | 0.0 | 0.0 | 0.00 | 0.64 | 0.64 | 99 | 1013.9 |
| 20260510024514 | 21 | 252 | 0.0 | 0.0 | 0.00 | 0.64 | 0.64 | 99 | 1014.0 |
| 20260510024010 | 21 | 252 | 0.0 | 0.0 | 0.00 | 0.64 | 0.64 | 99 | 1013.9 |
| 20260510023506 | 21 | 251 | 0.0 | 0.0 | 0.00 | 0.64 | 0.64 | 99 | 1013.6 |
| 20260510023004 | 21 | 251 | 0.0 | 0.0 | 0.00 | 0.64 | 0.64 | 99 | 1013.4 |
| 20260510022502 | 21 | 251 | 0.0 | 0.0 | 0.00 | 0.64 | 0.64 | 99 | 1013.5 |
| 20260510022003 | 21 | 251 | 0.0 | 0.0 | 0.00 | 0.64 | 0.64 | 99 | 1013.2 |
| 20260510021500 | 21 | 251 | 0.0 | 0.0 | 0.00 | 0.64 | 0.64 | 99 | 1013.0 |
| 20260510020956 | 21 | 251 | 0.0 | 0.0 | 0.00 | 0.64 | 0.64 | 99 | 1013.1 |
| 20260510020451 | 21 | 251 | 0.0 | 0.0 | 0.00 | 0.64 | 0.64 | 99 | 1012.9 |
| 20260510015946 | 21 | 251 | 0.0 | 0.0 | 0.00 | 0.64 | 0.64 | 99 | 1013.1 |
| 20260510015437 | 21 | 251 | 0.0 | 0.0 | 0.00 | 0.64 | 0.64 | 99 | 1012.8 |
| 20260510014932 | 21 | 250 | 0.0 | 0.0 | 0.00 | 0.64 | 0.64 | 99 | 1012.8 |
| 20260510014430 | 21 | 239 | 0.0 | 0.0 | 0.00 | 0.64 | 0.64 | 99 | 1012.8 |
| 20260510013926 | 21 | 334 | 0.0 | 0.0 | 0.00 | 0.64 | 0.64 | 99 | 1012.8 |
| 20260510013421 | 21 | 108 | 1.6 | 4.8 | 0.00 | 0.64 | 0.64 | 99 | 1012.7 |
| 20260510012917 | 21 | 62 | 0.0 | 0.0 | 0.00 | 0.64 | 0.64 | 99 | 1012.8 |
| 20260510012412 | 21 | 315 | 0.0 | 0.0 | 0.00 | 0.64 | 0.64 | 99 | 1012.8 |
| 20260510011907 | 21 | 315 | 0.0 | 0.0 | 0.00 | 0.64 | 0.64 | 99 | 1012.8 |
| 20260510011402 | 21 | 317 | 0.0 | 0.0 | 0.00 | 0.64 | 0.64 | 99 | 1012.7 |
| 20260510010858 | 21 | 316 | 0.0 | 0.0 | 0.00 | 0.64 | 0.64 | 99 | 1012.5 |
| 20260510010356 | 21 | 316 | 0.0 | 0.0 | 0.00 | 0.64 | 0.64 | 99 | 1012.4 |
| 20260510005852 | 21 | 317 | 0.0 | 0.0 | 0.00 | 0.64 | 0.64 | 99 | 1012.6 |
| 20260510005349 | 21 | 316 | 0.0 | 0.0 | 0.00 | 0.64 | 0.64 | 99 | 1012.7 |
| 20260510004846 | 21 | 317 | 0.0 | 1.6 | 0.00 | 0.64 | 0.64 | 99 | 1012.7 |
| 20260510004344 | 21 | 316 | 0.0 | 0.0 | 0.00 | 0.64 | 0.64 | 99 | 1012.8 |
| 20260510003842 | 21 | 316 | 0.0 | 0.0 | 0.00 | 0.64 | 0.64 | 99 | 1012.8 |
| 20260510003338 | 21 | 321 | 0.0 | 0.0 | 0.00 | 0.64 | 0.64 | 99 | 1012.8 |
| 20260510002837 | 21 | 336 | 0.0 | 0.0 | 0.00 | 0.64 | 0.64 | 99 | 1012.9 |
| 20260510002334 | 22 | 339 | 0.0 | 1.6 | 0.00 | 0.64 | 0.64 | 99 | 1012.9 |
| 20260510001831 | 22 | 59 | 0.0 | 1.6 | 0.00 | 0.64 | 0.64 | 99 | 1012.7 |
| 20260510001329 | 22 | 359 | 0.0 | 0.0 | 0.00 | 0.64 | 0.64 | 99 | 1012.9 |
| 20260510000825 | 22 | 4 | 0.0 | 0.0 | 0.13 | 0.64 | 0.64 | 99 | 1013.0 |
| 20260510000322 | 22 | 354 | 0.0 | 0.0 | 0.13 | 0.64 | 0.64 | 99 | 1012.9 |
| 20260509235819 | 22 | 0 | 0.0 | 0.0 | 0.00 | 0.61 | 0.61 | 99 | 1012.8 |
| 20260509235315 | 22 | 4 | 0.0 | 0.0 | 0.00 | 0.61 | 0.61 | 99 | 1012.7 |
| 20260509234811 | 22 | 14 | 0.0 | 0.0 | 0.00 | 0.61 | 0.61 | 99 | 1012.7 |
| 20260509234308 | 22 | 6 | 0.0 | 0.0 | 0.00 | 0.61 | 0.61 | 99 | 1012.8 |
| 20260509233806 | 22 | 89 | 0.0 | 0.0 | 0.00 | 0.61 | 0.61 | 99 | 1012.7 |
| 20260509233304 | 22 | 89 | 0.0 | 0.0 | 0.00 | 0.61 | 0.61 | 99 | 1012.8 |
| 20260509232759 | 22 | 71 | 1.6 | 3.2 | 0.00 | 0.61 | 0.61 | 99 | 1012.6 |
| 20260509232257 | 22 | 91 | 0.0 | 0.0 | 0.00 | 0.61 | 0.61 | 99 | 1012.7 |
| 20260509231753 | 22 | 92 | 0.0 | 0.0 | 0.00 | 0.61 | 0.61 | 99 | 1012.5 |
| 20260509231250 | 22 | 92 | 0.0 | 0.0 | 0.00 | 0.61 | 0.61 | 99 | 1012.4 |
| 20260509230748 | 22 | 128 | 0.0 | 1.6 | 0.00 | 0.61 | 0.61 | 99 | 1012.4 |
| 20260509230244 | 22 | 132 | 1.6 | 3.2 | 0.00 | 0.61 | 0.61 | 99 | 1012.4 |
| 20260509225740 | 22 | 70 | 1.6 | 3.2 | 0.00 | 0.61 | 0.61 | 99 | 1012.6 |
| 20260509225236 | 22 | 86 | 0.0 | 0.0 | 0.00 | 0.61 | 0.61 | 99 | 1012.9 |
| 20260509224732 | 22 | 128 | 0.0 | 1.6 | 0.00 | 0.61 | 0.61 | 99 | 1012.6 |
| 20260509224230 | 22 | 94 | 1.6 | 6.4 | 0.00 | 0.61 | 0.61 | 99 | 1012.7 |
| 20260509223726 | 22 | 126 | 0.0 | 3.2 | 0.00 | 0.61 | 0.61 | 99 | 1012.7 |
| 20260509223223 | 22 | 104 | 4.8 | 6.4 | 0.00 | 0.61 | 0.61 | 99 | 1012.8 |
| 20260509222720 | 22 | 93 | 1.6 | 4.8 | 0.00 | 0.61 | 0.61 | 99 | 1012.8 |
| 20260509222215 | 22 | 83 | 1.6 | 6.4 | 0.00 | 0.61 | 0.61 | 99 | 1013.0 |
| 20260509221711 | 22 | 83 | 4.8 | 4.8 | 0.00 | 0.61 | 0.61 | 99 | 1012.8 |
| 20260509221207 | 22 | 73 | 4.8 | 11.3 | 0.00 | 0.61 | 0.61 | 99 | 1012.4 |
| 20260509220703 | 22 | 84 | 1.6 | 3.2 | 0.00 | 0.61 | 0.61 | 99 | 1012.7 |
| 20260509220200 | 22 | 99 | 1.6 | 4.8 | 0.00 | 0.61 | 0.61 | 99 | 1012.8 |
| 20260509215656 | 22 | 87 | 3.2 | 9.7 | 0.00 | 0.61 | 0.61 | 99 | 1012.5 |
| 20260509215153 | 22 | 91 | 11.3 | 14.5 | 0.00 | 0.61 | 0.61 | 99 | 1012.5 |
| 20260509214650 | 22 | 97 | 8.0 | 9.7 | 0.00 | 0.61 | 0.61 | 99 | 1012.6 |
| 20260509214146 | 22 | 100 | 3.2 | 11.3 | 0.00 | 0.61 | 0.61 | 99 | 1012.6 |
| 20260509213644 | 22 | 109 | 9.7 | 14.5 | 0.00 | 0.61 | 0.61 | 99 | 1012.4 |
| 20260509213139 | 22 | 110 | 8.0 | 14.5 | 0.00 | 0.61 | 0.61 | 99 | 1012.6 |
| 20260509212637 | 23 | 97 | 8.0 | 9.7 | 0.00 | 0.61 | 0.61 | 99 | 1012.4 |
| 20260509212133 | 23 | 95 | 3.2 | 4.8 | 0.00 | 0.61 | 0.61 | 99 | 1012.4 |
| 20260509211629 | 23 | 75 | 4.8 | 6.4 | 0.00 | 0.61 | 0.61 | 99 | 1012.5 |
| 20260509211126 | 23 | 87 | 3.2 | 6.4 | 0.00 | 0.61 | 0.61 | 99 | 1012.3 |
| 20260509210622 | 23 | 48 | 1.6 | 4.8 | 0.00 | 0.61 | 0.61 | 99 | 1012.1 |
| 20260509210114 | 23 | 19 | 1.6 | 9.7 | 0.00 | 0.61 | 0.61 | 99 | 1012.1 |
| 20260509205608 | 23 | 77 | 3.2 | 4.8 | 0.00 | 0.61 | 0.61 | 99 | 1012.1 |
| 20260509205103 | 23 | 42 | 3.2 | 4.8 | 0.18 | 0.61 | 0.61 | 99 | 1012.4 |
| 20260509204600 | 23 | 15 | 0.0 | 1.6 | 0.18 | 0.61 | 0.61 | 99 | 1012.2 |
| 20260509204057 | 23 | 348 | 0.0 | 0.0 | 0.13 | 0.58 | 0.58 | 99 | 1012.1 |
| 20260509203552 | 23 | 349 | 0.0 | 1.6 | 0.30 | 0.58 | 0.58 | 99 | 1011.9 |
| 20260509203050 | 23 | 39 | 3.2 | 4.8 | 0.18 | 0.56 | 0.56 | 99 | 1011.9 |
| 20260509202545 | 23 | 350 | 0.0 | 1.6 | 0.00 | 0.53 | 0.53 | 99 | 1012.1 |
| 20260509202041 | 23 | 345 | 3.2 | 3.2 | 0.00 | 0.53 | 0.53 | 99 | 1012.3 |
| 20260509201536 | 23 | 333 | 0.0 | 0.0 | 0.00 | 0.53 | 0.53 | 99 | 1012.2 |
| 20260509201034 | 23 | 334 | 0.0 | 0.0 | 0.00 | 0.53 | 0.53 | 99 | 1012.0 |
| 20260509200533 | 23 | 357 | 0.0 | 0.0 | 0.00 | 0.53 | 0.53 | 99 | 1012.3 |
| 20260509200030 | 23 | 357 | 0.0 | 0.0 | 0.13 | 0.53 | 0.53 | 98 | 1012.2 |
| 20260509195525 | 23 | 11 | 0.0 | 0.0 | 0.48 | 0.53 | 0.53 | 98 | 1012.2 |
| 20260509195019 | 23 | 3 | 0.0 | 0.0 | 1.07 | 0.51 | 0.51 | 98 | 1011.9 |
| 20260509194514 | 23 | 27 | 1.6 | 4.8 | 0.89 | 0.46 | 0.46 | 98 | 1012.3 |
| 20260509194012 | 23 | 44 | 0.0 | 0.0 | 0.48 | 0.33 | 0.33 | 97 | 1012.5 |
| 20260509193507 | 23 | 67 | 0.0 | 0.0 | 0.48 | 0.28 | 0.28 | 97 | 1012.2 |
| 20260509193004 | 23 | 68 | 0.0 | 1.6 | 1.27 | 0.28 | 0.28 | 96 | 1012.3 |
| 20260509192500 | 24 | 68 | 0.0 | 3.2 | 0.79 | 0.20 | 0.20 | 95 | 1012.5 |
| 20260509191955 | 24 | 220 | 0.0 | 0.0 | 0.13 | 0.08 | 0.08 | 94 | 1012.4 |
| 20260509191450 | 24 | 220 | 0.0 | 1.6 | 0.13 | 0.08 | 0.08 | 94 | 1012.0 |
| 20260509190946 | 24 | 220 | 3.2 | 3.2 | 0.18 | 0.05 | 0.05 | 93 | 1012.0 |
| 20260509190443 | 24 | 219 | 1.6 | 1.6 | 0.18 | 0.05 | 0.05 | 92 | 1012.1 |
| 20260509185941 | 24 | 221 | 3.2 | 3.2 | 0.00 | 0.03 | 0.03 | 91 | 1012.2 |
| 20260509185438 | 25 | 203 | 0.0 | 4.8 | 0.00 | 0.03 | 0.03 | 89 | 1012.1 |
| 20260509184935 | 25 | 165 | 1.6 | 3.2 | 0.00 | 0.03 | 0.03 | 87 | 1012.1 |
| 20260509184433 | 25 | 214 | 0.0 | 1.6 | 0.00 | 0.03 | 0.03 | 87 | 1012.3 |
| 20260509183929 | 25 | 193 | 3.2 | 3.2 | 0.00 | 0.03 | 0.03 | 86 | 1012.1 |
| 20260509183423 | 26 | 174 | 1.6 | 6.4 | 0.00 | 0.03 | 0.03 | 85 | 1012.2 |
| 20260509182920 | 26 | 210 | 1.6 | 3.2 | 0.00 | 0.03 | 0.03 | 85 | 1012.1 |
| 20260509182417 | 26 | 249 | 4.8 | 6.4 | 0.00 | 0.03 | 0.03 | 84 | 1012.1 |
| 20260509181914 | 26 | 166 | 0.0 | 3.2 | 0.00 | 0.03 | 0.03 | 84 | 1012.4 |
| 20260509181412 | 26 | 162 | 1.6 | 6.4 | 0.00 | 0.03 | 0.03 | 85 | 1012.1 |
| 20260509180909 | 26 | 172 | 4.8 | 6.4 | 0.00 | 0.03 | 0.03 | 84 | 1012.3 |
| 20260509180404 | 26 | 207 | 0.0 | 3.2 | 0.00 | 0.03 | 0.03 | 84 | 1012.4 |
| 20260509175901 | 27 | 195 | 1.6 | 9.7 | 0.00 | 0.03 | 0.03 | 82 | 1012.6 |
| 20260509175357 | 27 | 249 | 1.6 | 3.2 | 0.00 | 0.03 | 0.03 | 80 | 1012.6 |
| 20260509174853 | 28 | 316 | 1.6 | 3.2 | 0.00 | 0.03 | 0.03 | 78 | 1012.6 |
| 20260509174349 | 28 | 319 | 0.0 | 1.6 | 0.00 | 0.03 | 0.03 | 78 | 1012.6 |
| 20260509173845 | 27 | 312 | 0.0 | 1.6 | 0.00 | 0.03 | 0.03 | 78 | 1012.8 |
| 20260509173340 | 27 | 328 | 1.6 | 4.8 | 0.00 | 0.03 | 0.03 | 79 | 1012.7 |
| 20260509172837 | 27 | 302 | 1.6 | 3.2 | 0.00 | 0.03 | 0.03 | 81 | 1012.8 |
| 20260509172334 | 27 | 271 | 0.0 | 3.2 | 0.00 | 0.03 | 0.03 | 82 | 1012.7 |
| 20260509171830 | 27 | 218 | 1.6 | 3.2 | 0.00 | 0.03 | 0.03 | 82 | 1012.7 |
| 20260509171325 | 27 | 211 | 3.2 | 3.2 | 0.00 | 0.03 | 0.03 | 82 | 1012.8 |
| 20260509170822 | 26 | 211 | 1.6 | 4.8 | 0.00 | 0.03 | 0.03 | 83 | 1012.5 |
| 20260509170318 | 26 | 230 | 3.2 | 4.8 | 0.00 | 0.03 | 0.03 | 83 | 1012.5 |
| 20260509165818 | 27 | 293 | 1.6 | 3.2 | 0.00 | 0.03 | 0.03 | 83 | 1012.9 |
| 20260509165312 | 26 | 294 | 0.0 | 1.6 | 0.00 | 0.03 | 0.03 | 83 | 1012.6 |
| 20260509164809 | 26 | 293 | 3.2 | 4.8 | 0.00 | 0.03 | 0.03 | 83 | 1012.7 |
| 20260509164306 | 26 | 251 | 0.0 | 3.2 | 0.00 | 0.03 | 0.03 | 83 | 1012.7 |
| 20260509163802 | 26 | 287 | 0.0 | 3.2 | 0.00 | 0.03 | 0.03 | 84 | 1012.9 |
| 20260509163258 | 26 | 298 | 1.6 | 3.2 | 0.00 | 0.03 | 0.03 | 84 | 1012.9 |
| 20260509162757 | 26 | 292 | 4.8 | 4.8 | 0.00 | 0.03 | 0.03 | 83 | 1013.1 |
| 20260509162251 | 26 | 221 | 0.0 | 1.6 | 0.00 | 0.03 | 0.03 | 85 | 1013.1 |
| 20260509161747 | 26 | 270 | 3.2 | 4.8 | 0.00 | 0.03 | 0.03 | 85 | 1013.3 |
| 20260509161243 | 26 | 280 | 1.6 | 4.8 | 0.00 | 0.03 | 0.03 | 85 | 1013.1 |
| 20260509160738 | 26 | 279 | 0.0 | 1.6 | 0.00 | 0.03 | 0.03 | 85 | 1013.0 |
| 20260509160230 | 26 | 226 | 1.6 | 6.4 | 0.00 | 0.03 | 0.03 | 85 | 1013.0 |
| 20260509155725 | 26 | 293 | 0.0 | 1.6 | 0.00 | 0.03 | 0.03 | 83 | 1013.0 |
| 20260509155222 | 26 | 294 | 0.0 | 3.2 | 0.00 | 0.03 | 0.03 | 84 | 1013.1 |
| 20260509154718 | 26 | 294 | 1.6 | 1.6 | 0.00 | 0.03 | 0.03 | 84 | 1012.9 |
| 20260509154215 | 26 | 285 | 1.6 | 1.6 | 0.00 | 0.03 | 0.03 | 85 | 1013.0 |
| 20260509153712 | 25 | 268 | 0.0 | 0.0 | 0.00 | 0.03 | 0.03 | 86 | 1012.8 |
| 20260509153208 | 25 | 268 | 0.0 | 0.0 | 0.00 | 0.03 | 0.03 | 86 | 1013.3 |
| 20260509152704 | 25 | 266 | 0.0 | 0.0 | 0.00 | 0.03 | 0.03 | 87 | 1013.2 |
| 20260509152201 | 25 | 262 | 1.6 | 1.6 | 0.00 | 0.03 | 0.03 | 87 | 1012.9 |
| 20260509151658 | 25 | 264 | 0.0 | 1.6 | 0.00 | 0.03 | 0.03 | 87 | 1013.0 |
| 20260509151155 | 25 | 261 | 4.8 | 4.8 | 0.00 | 0.03 | 0.03 | 86 | 1013.3 |
| 20260509150653 | 25 | 252 | 1.6 | 3.2 | 0.00 | 0.03 | 0.03 | 86 | 1013.5 |
| 20260509150151 | 25 | 261 | 0.0 | 1.6 | 0.00 | 0.03 | 0.03 | 86 | 1013.6 |
| 20260509145647 | 25 | 308 | 0.0 | 1.6 | 0.00 | 0.03 | 0.03 | 88 | 1013.5 |
| 20260509145142 | 25 | 86 | 0.0 | 3.2 | 0.00 | 0.03 | 0.03 | 89 | 1013.4 |
| 20260509144639 | 25 | 54 | 3.2 | 4.8 | 0.00 | 0.03 | 0.03 | 88 | 1013.5 |
| 20260509144136 | 25 | 330 | 1.6 | 3.2 | 0.00 | 0.03 | 0.03 | 88 | 1013.5 |
| 20260509143633 | 24 | 352 | 0.0 | 3.2 | 0.00 | 0.03 | 0.03 | 89 | 1013.6 |
| 20260509143131 | 24 | 333 | 0.0 | 3.2 | 0.00 | 0.03 | 0.03 | 89 | 1013.3 |
| 20260509142626 | 24 | 338 | 3.2 | 6.4 | 0.00 | 0.03 | 0.03 | 90 | 1013.4 |
| 20260509142123 | 24 | 342 | 1.6 | 3.2 | 0.00 | 0.03 | 0.03 | 89 | 1013.0 |
| 20260509141619 | 24 | 9 | 0.0 | 0.0 | 0.00 | 0.03 | 0.03 | 90 | 1013.0 |
| 20260509141115 | 24 | 251 | 3.2 | 3.2 | 0.00 | 0.03 | 0.03 | 90 | 1013.1 |
| 20260509140612 | 23 | 3 | 1.6 | 3.2 | 0.00 | 0.03 | 0.03 | 91 | 1013.3 |
| 20260509140110 | 23 | 13 | 3.2 | 3.2 | 0.00 | 0.03 | 0.03 | 92 | 1013.5 |
| 20260509135607 | 23 | 359 | 1.6 | 1.6 | 0.00 | 0.03 | 0.03 | 93 | 1013.3 |
| 20260509135105 | 23 | 47 | 3.2 | 4.8 | 0.00 | 0.03 | 0.03 | 93 | 1013.4 |
| 20260509134602 | 23 | 19 | 3.2 | 4.8 | 0.00 | 0.03 | 0.03 | 93 | 1013.4 |
| 20260509134059 | 23 | 350 | 3.2 | 4.8 | 0.00 | 0.03 | 0.03 | 93 | 1013.1 |
| 20260509133556 | 23 | 330 | 0.0 | 1.6 | 0.00 | 0.03 | 0.03 | 94 | 1013.1 |
| 20260509133053 | 22 | 341 | 3.2 | 6.4 | 0.00 | 0.03 | 0.03 | 94 | 1013.0 |
| 20260509132552 | 22 | 9 | 3.2 | 3.2 | 0.00 | 0.03 | 0.03 | 94 | 1012.9 |
| 20260509132050 | 22 | 13 | 3.2 | 3.2 | 0.00 | 0.03 | 0.03 | 94 | 1012.7 |
| 20260509131545 | 22 | 336 | 0.0 | 0.0 | 0.00 | 0.03 | 0.03 | 95 | 1012.7 |
| 20260509131042 | 22 | 329 | 0.0 | 0.0 | 0.00 | 0.03 | 0.03 | 95 | 1012.7 |
| 20260509130538 | 22 | 322 | 0.0 | 1.6 | 0.00 | 0.03 | 0.03 | 96 | 1012.7 |
| 20260509130035 | 22 | 284 | 0.0 | 0.0 | 0.00 | 0.03 | 0.03 | 97 | 1012.7 |
| 20260509125531 | 22 | 291 | 0.0 | 0.0 | 0.00 | 0.03 | 0.03 | 97 | 1012.5 |
| 20260509125028 | 22 | 18 | 3.2 | 3.2 | 0.00 | 0.03 | 0.03 | 98 | 1012.9 |
| 20260509124524 | 22 | 43 | 1.6 | 3.2 | 0.00 | 0.03 | 0.03 | 98 | 1012.8 |
| 20260509124021 | 22 | 12 | 0.0 | 0.0 | 0.00 | 0.03 | 0.03 | 98 | 1012.4 |
| 20260509123520 | 21 | 310 | 0.0 | 0.0 | 0.00 | 0.03 | 0.03 | 99 | 1012.3 |
| 20260509123010 | 21 | 330 | 0.0 | 0.0 | 0.00 | 0.03 | 0.03 | 99 | 1012.6 |
| 20260509122507 | 21 | 30 | 4.8 | 6.4 | 0.00 | 0.03 | 0.03 | 99 | 1012.5 |
| 20260509122004 | 21 | 23 | 3.2 | 4.8 | 0.00 | 0.03 | 0.03 | 99 | 1012.3 |
| 20260509121500 | 21 | 343 | 0.0 | 4.8 | 0.00 | 0.03 | 0.03 | 99 | 1012.3 |
| 20260509120958 | 21 | 339 | 0.0 | 0.0 | 0.00 | 0.03 | 0.03 | 99 | 1012.0 |
| 20260509120456 | 21 | 323 | 1.6 | 3.2 | 0.00 | 0.03 | 0.03 | 99 | 1012.3 |
| 20260509115954 | 21 | 299 | 0.0 | 1.6 | 0.00 | 0.03 | 0.03 | 99 | 1012.1 |
| 20260509115451 | 21 | 280 | 0.0 | 0.0 | 0.00 | 0.03 | 0.03 | 99 | 1012.4 |
| 20260509114948 | 20 | 307 | 0.0 | 0.0 | 0.00 | 0.03 | 0.03 | 99 | 1012.3 |
| 20260509114446 | 20 | 291 | 0.0 | 0.0 | 0.00 | 0.03 | 0.03 | 99 | 1011.9 |
| 20260509113946 | 20 | 298 | 0.0 | 0.0 | 0.00 | 0.03 | 0.03 | 99 | 1012.1 |
| 20260509113442 | 20 | 297 | 0.0 | 3.2 | 0.00 | 0.03 | 0.03 | 99 | 1011.6 |
| 20260509112939 | 20 | 291 | 0.0 | 0.0 | 0.00 | 0.03 | 0.03 | 99 | 1011.5 |
| 20260509112437 | 20 | 282 | 0.0 | 3.2 | 0.00 | 0.03 | 0.03 | 99 | 1011.5 |
| 20260509111933 | 20 | 272 | 0.0 | 4.8 | 0.00 | 0.03 | 0.03 | 99 | 1011.6 |
| 20260509111431 | 20 | 303 | 0.0 | 3.2 | 0.00 | 0.03 | 0.03 | 99 | 1011.3 |
| 20260509110928 | 20 | 274 | 0.0 | 1.6 | 0.00 | 0.03 | 0.03 | 99 | 1011.3 |
| 20260509110423 | 20 | 259 | 0.0 | 6.4 | 0.00 | 0.03 | 0.03 | 99 | 1011.0 |
| 20260509105922 | 20 | 267 | 1.6 | 3.2 | 0.00 | 0.03 | 0.03 | 99 | 1011.1 |
| 20260509105420 | 20 | 256 | 3.2 | 6.4 | 0.00 | 0.03 | 0.03 | 99 | 1010.8 |
| 20260509104917 | 20 | 262 | 3.2 | 9.7 | 0.00 | 0.03 | 0.03 | 99 | 1010.8 |
| 20260509104414 | 20 | 240 | 0.0 | 4.8 | 0.00 | 0.03 | 0.03 | 99 | 1011.0 |
| 20260509103911 | 20 | 260 | 1.6 | 4.8 | 0.00 | 0.03 | 0.03 | 99 | 1011.0 |
| 20260509103408 | 20 | 252 | 1.6 | 6.4 | 0.00 | 0.03 | 0.03 | 99 | 1011.2 |
| 20260509102907 | 20 | 250 | 1.6 | 9.7 | 0.00 | 0.03 | 0.03 | 99 | 1011.1 |
| 20260509102404 | 19 | 255 | 3.2 | 9.7 | 0.00 | 0.03 | 0.03 | 99 | 1011.1 |
| 20260509101859 | 19 | 261 | 4.8 | 9.7 | 0.00 | 0.03 | 0.03 | 99 | 1011.0 |
| 20260509101355 | 19 | 248 | 3.2 | 6.4 | 0.00 | 0.03 | 0.03 | 99 | 1011.0 |
| 20260509100854 | 19 | 259 | 3.2 | 9.7 | 0.00 | 0.03 | 0.03 | 99 | 1011.0 |